This is the latest recevied weather packets stored in our database for station/object HS2LXA-13. If no packets are shown the sender has not sent any weather packets the latest 10 day(s).
| Time | Temp. | Humidity | Pressure | Rain* | Wind** | Luminosity | Snow |
|---|---|---|---|---|---|---|---|
| 1778128167 | 28.33° C | 93% | 1010.8 hPa | 7.11 mm | - | 0 W/m² | - |
| 1778127565 | 28.33° C | 89% | 1010.7 hPa | 7.11 mm | - | 0 W/m² | - |
| 1778126964 | 28.33° C | 86% | 1010.9 hPa | 7.11 mm | - | 0 W/m² | - |
| 1778126363 | 28.89° C | 86% | 1010.9 hPa | 7.11 mm | - | 0 W/m² | - |
| 1778125762 | 28.33° C | 86% | 1010.8 hPa | 7.11 mm | - | 0 W/m² | - |
| 1778125161 | 28.89° C | 86% | 1010.9 hPa | 7.11 mm | - | 0 W/m² | - |
| 1778124559 | 30° C | 87% | 1010.9 hPa | 7.11 mm | - | 0 W/m² | - |
| 1778123957 | 28.89° C | 87% | 1010.9 hPa | 5.08 mm | - | 0 W/m² | - |
| 1778123355 | 28.33° C | 86% | 1010.9 hPa | 2.54 mm | - | 0 W/m² | - |
| 1778122753 | 28.33° C | 85% | 1010.9 hPa | 0.51 mm | - | 0 W/m² | - |
| 1778122150 | 30° C | 86% | 1010.7 hPa | 0.25 mm | - | 0 W/m² | - |
| 1778121549 | 30° C | 86% | 1010.5 hPa | 0.25 mm | - | 0 W/m² | - |
| 1778120948 | 30° C | 85% | 1010.4 hPa | 0.25 mm | - | 0 W/m² | - |
| 1778120347 | 31.67° C | 81% | 1010.3 hPa | 0 mm | - | 0 W/m² | - |
| 1778119747 | 31.67° C | 80% | 1010.4 hPa | 0 mm | - | 0 W/m² | - |
| 1778118605 | 32.22° C | 81% | 1010.7 hPa | 0 mm | - | 0 W/m² | - |
| 1778118006 | 32.22° C | 79% | 1010.4 hPa | 0 mm | - | 0 W/m² | - |
| 1778117400 | 32.22° C | 81% | 1010.4 hPa | 0 mm | - | 0 W/m² | - |
| 1778116799 | 33.33° C | 81% | 1010.1 hPa | 0 mm | - | 0 W/m² | - |
| 1778116191 | 33.89° C | 80% | 1010.1 hPa | 0 mm | - | 0 W/m² | - |
| 1778115590 | 35.56° C | 83% | 1010 hPa | 0 mm | - | 0 W/m² | - |
| 1778114989 | 38.33° C | 84% | 1009.7 hPa | 0 mm | - | 0 W/m² | - |
| 1778114388 | 36.67° C | 84% | 1009.5 hPa | 0 mm | - | 0 W/m² | - |
| 1778113786 | 35° C | 85% | 1009.7 hPa | 0 mm | - | 0 W/m² | - |
| 1778113186 | 33.89° C | 86% | 1009.4 hPa | 0 mm | - | 0 W/m² | - |
* Rain latest hour (hover to see other rain measurements)
** Current wind speed in m/s (hover to see current wind gust speed)